Miscellaneous Local Product
Issued by NWS Hastings, NE

Home | Current Version | Previous Version | Text Only | Print | Product List | Glossary On
Versions: 1 2 3 4 5 6 7 8 9 10 11 12 13 14 15 16 17 18 19 20 21 22 23 24 25 26 27 28 29 30 31 32 33 34 35 36 37 38 39 40 41 42 43 44 45 46 47 48 49 50
000
AXUS43 KGID 270102
MISGRI

GID CWA HOURLY WEATHER ROUNDUP
NATIONAL WEATHER SERVICE HASTINGS NE
800 PM CDT FRI MAY 26 2017

NOTE: "FAIR" INDICATES FEW OR NO CLOUDS BELOW 12,000 FEET WITH NO
SIGNIFICANT WEATHER AND/OR OBSTRUCTIONS TO VISIBILITY.

...SOUTH CENTRAL NEBRASKA...

CITY           SKY/WX    TMP DP  RH WIND       PRES   REMARKS
GRAND ISLAND   CLEAR     75  46  35 NE5       29.86R
HASTINGS       CLEAR     74  46  36 E7        29.86R
KEARNEY        CLEAR     72  46  40 E6        29.86S
ORD            CLEAR     71  43  36 NE5       29.87S
YORK           CLEAR     73  48  40 NE6       29.85R
AURORA         CLEAR     76  44  32 NE5       29.85R HAZE
LEXINGTON      CLOUDY    69  51  53 E6        29.85F
HOLDREGE       CLEAR     72  46  40 E6        29.84F
HEBRON         CLEAR     78  49  35 E8        29.82S

...NEBRASKA PANHANDLE...

CITY           SKY/WX    TMP DP  RH WIND       PRES   REMARKS
CHADRON        LGT RAIN  53  46  77 N12G22    29.94R
ALLIANCE       CLOUDY    56  50  80 E9        29.87S
SCOTTSBLUFF    CLOUDY    58  48  69 N15       29.89R
SIDNEY         CLOUDY    61  49  64 NE17      29.82R

...WESTERN AND NORTH CENTRAL NEBRASKA...

CITY           SKY/WX    TMP DP  RH WIND       PRES   REMARKS
VALENTINE      CLOUDY    69  39  33 NE6       29.91R
AINSWORTH      MOSUNNY   67  45  45 CALM      29.92R
ONEILL         CLEAR     69  44  41 N3        29.89R
BROKEN BOW     CLEAR     70  47  43 E7        29.87S
IMPERIAL       CLOUDY    65  51  60 S5        29.90R
NORTH PLATTE   CLOUDY    68  53  58 E6        29.87R
MCCOOK         CLOUDY    72  49  44 SE5       29.86R

...EASTERN NEBRASKA...

CITY           SKY/WX    TMP DP  RH WIND       PRES   REMARKS
NORFOLK        CLEAR     71  46  40 N6        29.85R
SO SIOUX CITY  CLEAR     71  49  45 NW9       29.83R
TEKAMAH        CLEAR     78  46  32 N8        29.81R
ALBION         CLEAR     70  46  43 NW6       29.87R
OMAHA EPPLEY   PTCLDY    78  50  37 NE6       29.81R
OFFUTT AFB     CLEAR     76  51  40 N6        29.81R
MILLARD        CLEAR     80  51  36 CALM      29.82R
LINCOLN        CLEAR     76  52  43 NE7       29.83R
NEBRASKA CITY  CLEAR     78  41  27 N7        29.82S
BEATRICE       CLEAR     78  50  37 NE5       29.83R
FALLS CITY     CLEAR     79  58  48 N7        29.79R

...NORTHERN KANSAS...

CITY           SKY/WX    TMP DP  RH WIND       PRES   REMARKS
GOODLAND       CLOUDY    69  53  56 E14       29.82F
HILL CITY      CLEAR     76  53  44 SE7       29.83F
NORTON         CLEAR     68  50  52 E5        29.85R
PHILLIPSBURG   CLEAR     73  54  49 E7        29.83R
SMITH CENTER   CLEAR     73  55  53 E6        29.83S
HAYS           CLOUDY    76  59  55 E10       29.83S
RUSSELL        CLEAR     75  59  57 E7        29.81S
CONCORDIA      CLEAR     76  56  49 E5        29.81S
SALINA         CLEAR     82  57  42 E8        29.80R
TOPEKA         CLEAR     83  63  50 CALM      29.78R



USA.gov is the U.S. government's official web portal to all federal, state and local government web resources and services.